023  
ASUS45 KGGW 242315  
RWRGGW  
HOURLY REGIONAL WEATHER ROUNDUP FOR NORTHEAST MONTANA  
NATIONAL WEATHER SERVICE GLASGOW MONTANA  
500 PM MDT FRI MAR 24 2017  
 
NOTE: "FAIR" INDICATES FEW OR NO CLOUDS BELOW 12,000 FEET WITH NO  
SIGNIFICANT WEATHER AND/OR S TO VISISBILITY.  
 
NORTHEAST MONTANA  
 
 
CITY SKY/WX TMP DP RH WIND PRES REMARKS
 
GLASGOW MOSUNNY 64 27 24 S20 29.85F  
PLENTYWOOD N/A 57 32 38 SE14 N/A  
WOLF POINT MOSUNNY 66 26 22 S12G23 29.89F  
JORDAN N/A 65 28 24 S18G28 29.86F  
WINNETT N/A 66 26 22 S14G22 N/A  
SIDNEY SUNNY 64 25 22 S8 29.95F  
GLENDIVE SUNNY 62 27 26 S12 29.96F  
MALTA N/A 67 30 25 S13G22 N/A  
SCOBEY N/A 60 30 32 SE13 29.90F  
 
FORT PECK REPORTS  
 
 
CITY SKY/WX TMP DP RH WIND PRES REMARKS
 
FORT PECK N/A 53 30 41 SE18 N/A  
THE PINES N/A 56 28 34 N3G12 N/A  
 
SOUTHEAST MONTANA  
 
 
CITY SKY/WX TMP DP RH WIND PRES REMARKS
 
BILLINGS MOSUNNY 65 22 19 S16G23 29.85F  
MILES CITY SUNNY 64 29 26 S17G26 29.91F  
BAKER SUNNY 60 27 28 S15 29.99F  
LIVINGSTON SUNNY 61 17 18 SW33G43 29.85F  
 
CENTRAL MONTANA  
 
 
CITY SKY/WX TMP DP RH WIND PRES REMARKS
 
HAVRE CLOUDY 66 23 19 S16 29.73F  
LEWISTOWN CLOUDY 63 20 19 S13G23 29.80F  
GREAT FALLS CLOUDY 65 19 17 S20G28 29.71F  
CUT BANK CLOUDY 58 24 27 NW8 29.70F  
HELENA MOSUNNY 63 20 19 S16G28 29.75F  
BUTTE CLOUDY 54 21 27 S24G33 29.84F  
BOZEMAN MOSUNNY 60 16 18 SW8 29.83F  
 
WESTERN MONTANA  
 
 
CITY SKY/WX TMP DP RH WIND PRES REMARKS
 
MISSOULA CLOUDY 53 34 48 W18G24 29.80S  
KALISPELL NOT AVBL  
 
NORTH DAKOTA  
 
 
CITY SKY/WX TMP DP RH WIND PRES REMARKS
 
WILLISTON SUNNY 57 32 38 E18 29.99F  
DICKINSON PTSUNNY 54 32 43 SE10 30.02F  
MINOT SUNNY 39 29 67 E17 30.13F  
BISMARCK SUNNY 46 34 62 E13 30.15S  
 
SOUTHERN SASKATCHEWAN  
 
 
CITY SKY/WX TMP DP RH WIND PRES REMARKS
 
REGINA CLOUDY 39 34 81 SE23G31 29.97F  
MOOSE JAW CLOUDY 48 39 71 SE21G29 29.90F  
ESTEVAN PTSUNNY 37 32 81 E20 30.05F  
SWIFT CURRENT PTSUNNY 54 27 35 S13 29.81F  
 
 
 
CLICK HERE TO GO TO PREVIOUS BULLETINS.

The Nexlab MT Page Main Text Page